Regional Weather Roundup
Issued by NWS

Home | Current Version | Previous Version | Graphics & Text | Print | Product List | Glossary On
Versions: 1 2 3 4 5 6 7 8 9 10 11 12 13 14 15 16 17 18 19 20 21 22 23 24 25 26 27 28 29 30 31 32 33 34 35 36 37 38 39 40 41 42 43 44 45 46 47 48 49 50
000
ASUS45 KBOU 221607
RWRCO

WEATHER ROUNDUP FOR COLORADO
NATIONAL WEATHER SERVICE DENVER/BOULDER CO
1000 AM MDT FRI AUG 22 2014

NOTE: "FAIR" INDICATES FEW OR NO CLOUDS BELOW 12000 FEET WITH NO
SIGNIFICANT WEATHER AND/OR OBSTRUCTIONS TO VISIBILITY.

COZ001>005-013-030-031-221700-
...NORTHWEST COLORADO...

CITY           SKY/WX    TMP DP  RH WIND       PRES   REMARKS
CRAIG          MOSUNNY   70  49  47 NE7       30.17F
HAYDEN         MOSUNNY   64  46  52 E10       30.19F
MEEKER         MOSUNNY   67  47  48 N6        30.18F
MOUNT WERNER   NOT AVBL
STEAMBOAT SPGS MOSUNNY   61  47  60 NW5       30.22S
WALDEN         PTSUNNY   55  45  67 SE10      30.31F
$$

COZ006>008-011-221700-
...WEST CENTRAL VALLEYS...

CITY           SKY/WX    TMP DP  RH WIND       PRES   REMARKS
GRAND JUNCTION MOSUNNY   72  50  45 SE17      30.11F
MONTROSE       PTSUNNY   63  55  75 SE3       30.21S
EAGLE          CLOUDY    57  54  88 CALM      30.28F
RIFLE          PTSUNNY   68  50  52 E10       30.16F
DELTA          RAIN      67  56  67 E5        30.17S
NUCLA          PTSUNNY   64  46  52 CALM      30.23S
$$

COZ017>023-064>068-221700-
...SOUTHWEST COLORADO...

CITY           SKY/WX    TMP DP  RH WIND       PRES   REMARKS
DURANGO        CLOUDY    59  52  77 NE3       30.27S
CORTEZ         SUNNY     63  55  75 W3        30.22S
PAGOSA SPRINGS RAIN      53  51  91 N3        30.35S
TELLURIDE      NOT AVBL
WOLF CREEK PAS NOT AVBL
$$

COZ009-010-012-014-032>034-037-058>063-221700-
...CENTRAL COLORADO...

CITY           SKY/WX    TMP DP  RH WIND       PRES   REMARKS
ASPEN          PTSUNNY   56  50  80 N5        30.30S
BUENA VISTA    CLOUDY    60  44  55 CALM      30.32S
COPPER MTN     CLOUDY    50  41  71 S10       30.55S
BERTHOUD PASS  CLOUDY    39  37  93 E15       30.59F
COTTONWOOD PAS CLOUDY    57  41  54 CALM      30.43F
GUNNISON       PTSUNNY   55  46  71 CALM      30.34S
KREMMLING      CLOUDY    55  48  76 CALM      30.32S
LEADVILLE      PTSUNNY   52  41  66 SE3       30.41F
MONARCH PASS   CLOUDY    48  37  66 S10       30.66S
SALIDA         CLOUDY    63  44  50 CALM      30.37S
SUNLIGHT       CLOUDY    46  45  93 CALM      30.48S
WILKERSON PASS NOT AVBL
$$

COZ069>075-221700-
...SAN LUIS VALLEY/SANGRE DE CRISTO MOUNTAINS...

CITY           SKY/WX    TMP DP  RH WIND       PRES   REMARKS
ALAMOSA        LGT RAIN  53  49  86 S9        30.33R FOG
LA VETA PASS   NOT AVBL
SAGUACHE       PTSUNNY   63  41  45 NW5       30.32R
$$

COZ035-036-038>040-221700-
...NORTHERN COLORADO FRONT RANGE...

CITY           SKY/WX    TMP DP  RH WIND       PRES   REMARKS
DENVER INTL AP CLOUDY    67  55  65 CALM      30.18S
DMNS CITY PARK   N/A     68  55  62 CALM      30.18R
AURORA         CLOUDY    65  56  71 SW6       30.21R
FRONT RANGE AP NOT AVBL
ERIE MUNI ARPT CLOUDY    67  59  75 CALM      30.17S
BOULDER MUN AP CLOUDY    68  55  64 CALM      30.17S
CENTENNIAL     CLOUDY    65  52  62 CALM      30.20S
BROOMFIELD     CLOUDY    66  55  68 CALM      30.20S
FORT COLLINS   CLOUDY    68  57  68 CALM      30.18S
LONGMONT       CLOUDY    72  56  58 CALM      30.18S
$$

COZ041-046-047-076>085-087-088-221700-
...PIKES PEAK/PALMER DIVIDE AND SOUTHERN FOOTHILLS...

CITY           SKY/WX    TMP DP  RH WIND       PRES   REMARKS
COLO. SPRINGS  CLOUDY    71  52  50 NE6       30.22S
A. F. ACADEMY  CLOUDY    66  51  58 N7        30.25R
ELLICOTT       CLOUDY    69  55  60 NE12      30.19R
FALCON         CLOUDY    65  52  62 NE8       30.27R
FORT CARSON    CLOUDY    70  53  54 NE6       30.20R
LIMON          PTSUNNY   70  56  61 NE14      30.16S
MONUMENT HILL  CLOUDY    59  52  77 CALM      30.27R
TRINIDAD       PTSUNNY   72  52  49 N3        30.18R
$$

COZ042>045-048>051-090-091-221700-
...NORTHEAST COLORADO...

CITY           SKY/WX    TMP DP  RH WIND       PRES   REMARKS
GREELEY ARPT   CLOUDY    64  55  72 CALM      30.16S
AKRON          PTSUNNY   69  60  73 N10       30.12S
BURLINGTON     MOSUNNY   74  56  53 NE15G23   30.09S
WRAY             N/A     75  59  57 N9        30.07R
STERLING       CLOUDY    64  64 100 E6        30.08F
HOLYOKE        NOT AVBL
FORT MORGAN    CLOUDY    66  58  76 CALM      30.14S
$$

COZ086-089-092>099-221700-
...SOUTHEAST COLORADO...

CITY           SKY/WX    TMP DP  RH WIND       PRES   REMARKS
PUEBLO         CLOUDY    75  54  47 VRB5      30.12R
LA JUNTA       MOSUNNY   79  58  48 NE10      30.06F
LAMAR          MOSUNNY   80  61  52 NE5       30.00S
SPRINGFIELD      N/A     83  53  35 NW9       30.05R
$$



USA.gov is the U.S. government's official web portal to all federal, state and local government web resources and services.